Regional Weather Roundup
Issued by NWS

Home | Current Version | Previous Version | Text Only | Print | Product List | Glossary Off
Versions: 1 2 3 4 5 6 7 8 9 10 11 12 13 14 15 16 17 18 19 20 21 22 23 24 25 26 27 28 29 30 31 32 33 34 35 36 37 38 39 40 41 42 43 44 45 46 47 48 49 50

000
ASUS45 KPSR 160910
RWRAZ

ARIZONA HOURLY REGIONAL WEATHER ROUNDUP
NATIONAL WEATHER SERVICE PHOENIX AZ
200 AM MST MON JAN 16 2017

NOTE: FAIR INDICATES FEW OR NO CLOUDS BELOW 12,000 FEET WITH NO
SIGNIFICANT WEATHER AND/OR OBSTRUCTIONS TO VISIBILITY.

AZZ001>003-036-161000-
NORTHWEST ARIZONA

CITY           SKY/WX    TMP DP  RH WIND       PRES   REMARKS
BULLHEAD CITY  MOCLDY    52  37  58 N5        30.03R
KINGMAN        PTCLDY    34  30  85 SE6       30.03S WCI  29
$$

AZZ004>008-015-016-018-161000-
NORTH CENTRAL ARIZONA

CITY           SKY/WX    TMP DP  RH WIND       PRES   REMARKS
GRAND CANYON   CLOUDY    33  32  96 VRB7      30.01R WCI  27
WILLIAMS       CLOUDY    34  32  93 W6        30.00S WCI  29
PRESCOTT       CLOUDY    41  38  89 W7        30.00F
FLAGSTAFF      CLOUDY    33  31  92 W6        29.99S WCI  28
PAYSON         CLOUDY    41  41 100 W8        30.02F FOG
PAGE           CLOUDY    42  28  57 N8        29.97R
$$

AZZ009>014-017-161000-
NORTHEAST ARIZONA

CITY           SKY/WX    TMP DP  RH WIND       PRES   REMARKS
WINSLOW        CLOUDY    41  40  96 S3        29.98S
SAINT JOHNS    CLOUDY    39  38  96 N3        29.97S
SHOW LOW       CLOUDY    36  32  87 W6        30.00S WCI  31
$$

AZZ023-161000-
GREATER PHOENIX AREA

CITY           SKY/WX    TMP DP  RH WIND       PRES   REMARKS
PHOENIX        CLOUDY    55  48  77 CALM      30.00S
BUCKEYE        PTCLDY    46  46 100 CALM      30.02F
LUKE AFB       MOCLDY    52  52 100 S9        29.99F
DEER VALLEY    CLOUDY    53  50  89 CALM      30.00F
SCOTTSDALE     CLOUDY    53  48  83 SE3       30.02S
MESA-GATEWAY   CLEAR     50  50 100 E3        30.02S
$$

AZZ027-028-161000-
SOUTHWEST MARICOPA COUNTY AND PINAL COUNTY

CITY           SKY/WX    TMP DP  RH WIND       PRES   REMARKS
CASA GRANDE    CLOUDY    51  48  89 S7        30.03S
$$

AZZ503-504-507>509-161000-
SOUTHEAST ARIZONA

CITY           SKY/WX    TMP DP  RH WIND       PRES   REMARKS
TUCSON         LGT RAIN  50  46  86 CALM      30.05S
DAVIS-MONTHAN  CLOUDY    48  48 100 CALM      30.03S
NOGALES        CLOUDY    41  39  93 SE3       30.03S
SIERRA VISTA   CLOUDY    40  37  92 S7        30.04F WCI  35
DOUGLAS        MOCLDY    36  35  96 E7        30.03F WCI  30
SAFFORD        CLOUDY    46  43  89 S3        29.99S
$$

AZZ020-021-025-026-031-161000-
SOUTHWEST ARIZONA

CITY           SKY/WX    TMP DP  RH WIND       PRES   REMARKS
YUMA           NOT AVBL
$$

CAZ031-033-041-043-047-048-061-161000-
SOUTHERN CALIFORNIA

CITY           SKY/WX    TMP DP  RH WIND       PRES   REMARKS
DOWNTOWN L.A.  MOCLDY    56  52  86 CALM      30.06S
L.A. AIRPORT   CLOUDY    55  53  93 E3        30.07S
SAN DIEGO      PTCLDY    54  49  83 CALM      30.07F
BURBANK        PTCLDY    53  48  83 CALM      30.05F
ONTARIO        CLOUDY    52  49  89 W3        30.05F
RIVERSIDE      CLOUDY    47 N/A N/A CALM      30.06S
PALM SPRINGS   CLEAR     52  44  74 CALM      30.03S
IMPERIAL       CLEAR     52  45  77 S5        29.99S
BLYTHE         CLEAR     51  42  71 S5        30.00F
NEEDLES        PTCLDY    48  39  71 CALM      30.02S
$$

NVZ020-UTZ003-161000-
SOUTHERN NEVADA-UTAH

CITY           SKY/WX    TMP DP  RH WIND       PRES   REMARKS
LAS VEGAS      CLOUDY    47  27  45 N5        30.05R
SALT LAKE CITY CLOUDY    27  22  81 NW13      30.22R WCI  16
$$

NMZ009-TXZ055-161000-
NEW MEXICO-WEST TEXAS

CITY           SKY/WX    TMP DP  RH WIND       PRES   REMARKS
ALBUQUERQUE    DRIZZLE   37  35  92 CALM      29.92R
EL PASO        PTCLDY    42  34  73 SE7       29.97R
$$


........................KEY........................
SKY/WX - SKY CONDITION/WEATHER
TMP    - TEMPERATURE IN FAHRENHEIT
DP     - DEW POINT IN FAHRENHEIT
RH     - RELATIVE HUMIDITY IN PERCENT
WIND   - DIRECTION AND SPEED IN MILES PER HOUR (MPH)
VRB    - VARIABLE WIND DIRECTION
PRES   - MEAN SEA LEVEL PRESSURE IN INCHES OF MERCURY
         F - FALLING PRESSURE   R - RISING PRESSURE
         S - STEADY PRESSURE
VSB    - VISIBILITY IN MILES
HX     - HEAT INDEX IN FAHRENHEIT
WCI    - WIND CHILL INDEX IN FAHRENHEIT
TC     - TEMPERATURE IN CELSIUS WHICH IS ALSO KNOWN AS
         TEMPERATURE IN CENTIGRADE
AFB    - AIR FORCE BASE
         LUKE AFB IS LUKE AIR FORCE BASE
         DAVIS-MONTHAN IS DAVIS-MONTHAN AIR FORCE BASE
NAS    - NAVAL AIR STATION
         EL CENTRO NAS IS EL CENTRO NAVAL AIR STATION
N/A    - NOT AVAILABLE




USA.gov is the U.S. government's official web portal to all federal, state and local government web resources and services.